Precipitable_Water
1.03 0.99 0.96 0.97 0.99 1.00 1.01 0.96 0.93 0.86 0.83 0.86 0.84 0.84 0.76 0.73 0.59 0.50 0.46 0.50 0.52 0.56 0.65 0.59 0.66 0.74 0.77 0.80 0.88 0.94 1.01 1.08 1.17 1.27 1.36 1.45 1.55 1.58 1.63 1.67 1.73 1.79 1.79 1.79 1.81 1.83 1.88 1.89 1.87 1.82 1.75 1.71 1.72 1.71 1.67 1.63 1.65 1.66 1.64 1.62 1.57 1.51 1.50 1.50 1.49 1.48 1.47 1.46 1.45 1.43 1.46 1.52 1.57 1.58
1.11 1.10 1.08 1.05 1.03 1.05 1.02 0.98 0.95 0.88 0.88 0.88 0.86 0.86 0.86 0.81 0.64 0.60 0.51 0.49 0.60 0.56 0.61 0.64 0.63 0.71 0.73 0.78 0.81 0.88 0.94 1.03 1.11 1.19 1.29 1.39 1.48 1.53 1.54 1.61 1.68 1.72 1.76 1.78 1.78 1.79 1.85 1.86 1.86 1.85 1.83 1.80 1.76 1.74 1.70 1.67 1.65 1.63 1.63 1.62 1.61 1.57 1.51 1.50 1.50 1.50 1.48 1.47 1.45 1.43 1.41 1.43 1.49 1.54
1.18 1.11 1.09 1.08 1.05 1.10 1.08 1.07 1.01 0.92 0.89 0.86 0.87 0.85 0.85 0.79 0.75 0.68 0.64 0.52 0.60 0.65 0.55 0.60 0.68 0.69 0.74 0.78 0.79 0.83 0.91 1.00 1.09 1.15 1.24 1.35 1.45 1.50 1.50 1.53 1.62 1.68 1.72 1.77 1.78 1.76 1.74 1.77 1.84 1.87 1.86 1.84 1.81 1.78 1.74 1.71 1.69 1.65 1.62 1.59 1.60 1.61 1.58 1.52 1.50 1.50 1.50 1.49 1.48 1.46 1.43 1.42 1.42 1.45
1.11 1.08 1.05 1.18 1.26 1.24 1.17 1.08 1.02 0.92 0.88 0.88 0.85 0.82 0.79 0.78 0.78 0.75 0.68 0.59 0.52 0.66 0.63 0.65 0.68 0.73 0.73 0.78 0.76 0.77 0.84 0.96 1.06 1.12 1.17 1.29 1.41 1.48 1.51 1.49 1.55 1.65 1.68 1.73 1.76 1.74 1.70 1.67 1.75 1.83 1.84 1.83 1.82 1.81 1.78 1.74 1.74 1.72 1.65 1.59 1.57 1.59 1.61 1.58 1.53 1.51 1.50 1.49 1.49 1.49 1.47 1.46 1.44 1.43
1.15 1.16 1.19 1.23 1.25 1.22 1.11 1.08 1.04 0.98 0.97 0.97 0.93 0.85 0.78 0.76 0.78 0.75 0.68 0.58 0.54 0.61 0.72 0.71 0.72 0.75 0.78 0.74 0.80 0.77 0.79 0.86 0.98 1.09 1.14 1.23 1.34 1.43 1.49 1.51 1.51 1.60 1.67 1.70 1.73 1.73 1.71 1.67 1.68 1.73 1.79 1.82 1.81 1.78 1.77 1.77 1.77 1.73 1.64 1.58 1.57 1.58 1.60 1.60 1.57 1.53 1.50 1.48 1.47 1.47 1.48 1.49 1.47 1.44
1.21 1.20 1.15 1.13 1.16 1.17 1.14 1.21 1.21 1.16 1.11 1.06 0.94 0.82 0.76 0.75 0.75 0.79 0.71 0.66 0.62 0.57 0.67 0.69 0.77 0.77 0.83 0.74 0.82 0.80 0.78 0.81 0.92 1.01 1.08 1.16 1.31 1.41 1.48 1.51 1.50 1.53 1.65 1.71 1.73 1.75 1.74 1.72 1.68 1.68 1.71 1.74 1.73 1.72 1.73 1.74 1.77 1.76 1.66 1.57 1.57 1.59 1.60 1.60 1.59 1.56 1.51 1.47 1.45 1.46 1.47 1.49 1.48 1.46
1.15 1.11 1.10 1.10 1.14 1.22 1.27 1.26 1.19 1.13 1.07 1.01 0.87 0.79 0.80 0.78 0.79 0.80 0.82 0.78 0.70 0.67 0.68 0.77 0.75 0.76 0.78 0.78 0.78 0.84 0.85 0.88 0.92 0.98 1.05 1.09 1.19 1.37 1.47 1.50 1.53 1.52 1.58 1.69 1.73 1.76 1.77 1.78 1.75 1.72 1.71 1.70 1.68 1.69 1.70 1.72 1.75 1.77 1.74 1.64 1.57 1.57 1.59 1.60 1.58 1.56 1.52 1.47 1.46 1.47 1.49 1.49 1.49 1.48
1.04 1.03 1.02 1.02 1.06 1.07 1.06 1.10 1.09 1.03 0.98 0.93 0.88 0.85 0.90 0.94 0.91 0.90 0.92 0.93 0.86 0.83 0.77 0.80 0.79 0.79 0.78 0.79 0.84 0.87 0.89 0.88 0.90 0.97 1.04 1.10 1.11 1.24 1.39 1.46 1.51 1.54 1.55 1.66 1.72 1.75 1.80 1.82 1.81 1.78 1.74 1.72 1.70 1.69 1.69 1.72 1.73 1.74 1.76 1.70 1.60 1.55 1.56 1.57 1.57 1.57 1.55 1.51 1.47 1.47 1.49 1.51 1.51 1.50
1.00 1.01 1.01 1.03 1.06 1.05 1.00 0.99 0.99 0.98 0.98 1.08 1.14 1.11 1.14 1.12 1.08 1.07 1.05 1.01 0.99 0.92 0.84 0.81 0.86 0.87 0.85 0.85 0.85 0.88 0.85 0.85 0.90 0.97 1.02 1.06 1.08 1.15 1.33 1.42 1.48 1.54 1.56 1.62 1.71 1.75 1.80 1.83 1.84 1.81 1.78 1.78 1.78 1.73 1.70 1.73 1.72 1.73 1.76 1.73 1.63 1.54 1.53 1.55 1.57 1.58 1.58 1.55 1.51 1.49 1.49 1.50 1.51 1.51
1.02 1.01 0.99 1.00 1.02 1.02 0.98 0.97 1.00 1.06 1.07 1.07 1.02 1.02 1.05 1.07 1.10 1.07 1.01 0.96 0.90 0.89 0.89 0.87 0.83 0.87 0.85 0.83 0.83 0.88 0.91 0.87 0.85 0.89 0.98 1.06 1.10 1.13 1.21 1.35 1.46 1.56 1.58 1.57 1.64 1.71 1.76 1.82 1.86 1.84 1.80 1.80 1.81 1.76 1.73 1.72 1.69 1.70 1.77 1.76 1.65 1.54 1.51 1.54 1.57 1.59 1.59 1.58 1.56 1.55 1.52 1.51 1.51 1.51
1.01 0.99 0.97 0.97 0.99 1.01 1.02 1.01 1.04 1.04 1.02 1.04 1.05 1.02 1.02 1.05 1.04 0.98 0.92 0.91 0.94 0.97 0.93 0.90 0.90 0.89 0.90 0.88 0.80 0.87 0.96 0.95 0.94 0.89 0.92 0.95 1.04 1.09 1.14 1.18 1.30 1.45 1.56 1.60 1.62 1.69 1.74 1.78 1.83 1.83 1.80 1.81 1.81 1.77 1.74 1.72 1.68 1.67 1.71 1.74 1.68 1.58 1.54 1.54 1.56 1.59 1.61 1.60 1.58 1.59 1.58 1.54 1.52 1.51
1.01 1.02 1.02 1.03 1.04 1.05 1.06 1.06 1.06 1.03 1.02 1.06 1.00 1.00 0.96 0.97 0.96 0.89 0.92 0.99 0.99 0.97 0.94 0.90 0.90 0.91 0.87 0.85 0.90 0.94 0.95 0.90 0.90 0.97 0.96 0.91 0.94 1.00 1.10 1.19 1.21 1.33 1.45 1.49 1.53 1.64 1.73 1.76 1.80 1.80 1.79 1.80 1.80 1.77 1.74 1.72 1.69 1.64 1.63 1.67 1.67 1.62 1.58 1.58 1.60 1.63 1.63 1.60 1.59 1.61 1.61 1.59 1.56 1.53
1.05 1.07 1.07 1.06 1.07 1.10 1.09 1.08 1.04 1.04 1.06 1.03 0.97 0.97 1.00 0.97 0.96 0.99 1.02 0.95 0.93 0.92 0.90 0.88 0.91 0.86 0.83 0.83 0.85 0.86 0.87 0.86 0.87 0.96 1.01 0.98 1.02 1.04 1.05 1.13 1.27 1.34 1.37 1.45 1.50 1.53 1.66 1.69 1.72 1.75 1.74 1.75 1.77 1.77 1.76 1.74 1.71 1.66 1.62 1.67 1.68 1.63 1.61 1.61 1.63 1.64 1.64 1.62 1.61 1.61 1.62 1.63 1.60 1.55
1.10 1.11 1.10 1.09 1.08 1.06 1.06 1.05 1.04 1.06 1.09 1.10 1.08 1.06 1.07 1.07 1.07 1.03 0.97 0.93 0.92 0.91 0.86 0.85 0.84 0.81 0.80 0.83 0.87 0.88 0.91 0.96 0.99 0.99 1.02 0.97 1.01 1.04 1.01 1.06 1.17 1.31 1.38 1.40 1.41 1.46 1.61 1.66 1.68 1.74 1.72 1.76 1.79 1.76 1.74 1.71 1.69 1.65 1.62 1.66 1.70 1.66 1.63 1.61 1.60 1.62 1.62 1.63 1.64 1.62 1.63 1.64 1.61 1.56
1.07 1.09 1.09 1.08 1.07 1.06 1.05 1.05 1.04 1.05 1.05 1.07 1.10 1.12 1.13 1.12 1.05 1.00 0.96 0.93 0.97 0.94 0.87 0.86 0.85 0.84 0.83 0.87 0.92 0.93 0.95 0.99 1.01 1.02 1.05 1.02 1.01 0.97 0.93 0.88 1.03 1.25 1.35 1.40 1.43 1.42 1.54 1.62 1.59 1.68 1.73 1.75 1.76 1.76 1.73 1.71 1.69 1.67 1.66 1.68 1.72 1.71 1.67 1.63 1.57 1.57 1.60 1.63 1.65 1.63 1.63 1.63 1.61 1.58
1.01 1.02 1.04 1.07 1.08 1.06 1.02 1.02 1.04 1.05 1.07 1.09 1.08 1.08 1.11 1.09 1.08 1.09 1.04 0.99 0.98 0.93 0.88 0.86 0.86 0.87 0.87 0.89 0.94 0.97 1.00 1.00 1.04 1.07 1.07 1.04 1.00 0.97 0.95 0.95 0.95 1.14 1.39 1.39 1.42 1.43 1.56 1.63 1.60 1.61 1.69 1.74 1.74 1.73 1.73 1.72 1.70 1.70 1.73 1.76 1.78 1.77 1.74 1.68 1.59 1.57 1.59 1.64 1.65 1.63 1.63 1.63 1.62 1.61
0.99 1.00 1.02 1.03 1.06 1.05 1.02 1.04 1.07 1.09 1.09 1.10 1.09 1.07 1.08 1.09 1.09 1.05 1.05 1.09 1.04 1.00 0.94 0.89 0.90 0.92 0.92 0.92 0.96 1.03 1.06 1.10 1.04 1.07 1.05 1.06 1.05 1.03 0.99 0.98 1.02 1.11 1.34 1.36 1.34 1.36 1.48 1.58 1.57 1.54 1.64 1.71 1.74 1.74 1.74 1.73 1.73 1.77 1.81 1.80 1.81 1.81 1.80 1.72 1.61 1.59 1.63 1.66 1.66 1.63 1.61 1.61 1.62 1.61
1.00 1.02 1.02 1.03 1.03 1.04 1.04 1.06 1.08 1.08 1.07 1.08 1.09 1.09 1.08 1.10 1.12 1.10 1.11 1.10 1.08 1.05 1.00 0.97 0.94 0.97 1.01 0.98 1.03 1.10 1.15 1.10 1.06 1.07 1.04 1.08 1.05 1.03 1.01 1.08 1.10 1.14 1.28 1.26 1.33 1.36 1.48 1.58 1.56 1.52 1.59 1.71 1.73 1.73 1.74 1.75 1.77 1.80 1.78 1.77 1.80 1.85 1.83 1.76 1.67 1.64 1.66 1.67 1.66 1.63 1.60 1.60 1.60 1.60
1.01 1.02 1.06 1.07 1.05 1.04 1.05 1.09 1.11 1.10 1.10 1.10 1.09 1.06 1.02 1.04 1.07 1.09 1.12 1.11 1.09 1.06 1.03 1.02 1.01 1.02 1.05 1.08 1.12 1.17 1.19 1.17 1.17 1.17 1.14 1.15 1.13 1.13 1.15 1.13 1.12 1.11 1.22 1.29 1.35 1.26 1.48 1.66 1.57 1.59 1.63 1.71 1.73 1.75 1.74 1.76 1.77 1.78 1.77 1.77 1.81 1.86 1.84 1.79 1.73 1.69 1.68 1.68 1.66 1.64 1.61 1.60 1.59 1.59
1.02 1.04 1.05 1.04 1.04 1.05 1.06 1.08 1.13 1.14 1.16 1.12 1.06 1.02 1.02 1.01 1.04 1.08 1.14 1.17 1.15 1.12 1.08 1.06 1.05 1.07 1.09 1.13 1.18 1.21 1.21 1.21 1.23 1.24 1.25 1.24 1.19 1.12 1.04 0.97 1.03 1.02 1.12 1.27 1.31 1.35 1.47 1.70 1.63 1.55 1.66 1.76 1.73 1.78 1.78 1.78 1.77 1.77 1.77 1.79 1.84 1.85 1.82 1.78 1.76 1.72 1.69 1.67 1.65 1.64 1.64 1.62 1.61 1.60
1.00 1.01 1.01 1.01 1.02 1.03 1.06 1.11 1.12 1.15 1.16 1.10 1.05 1.01 0.97 0.99 1.02 1.05 1.13 1.17 1.17 1.14 1.11 1.08 1.09 1.10 1.12 1.17 1.21 1.24 1.26 1.26 1.27 1.24 1.17 1.12 1.18 1.08 0.97 0.96 0.98 0.96 1.05 1.21 1.36 1.45 1.47 1.62 1.68 1.60 1.64 1.71 1.75 1.78 1.79 1.81 1.80 1.81 1.82 1.83 1.84 1.82 1.80 1.79 1.77 1.73 1.69 1.66 1.65 1.66 1.66 1.65 1.64 1.61
0.94 0.95 0.95 0.97 0.99 1.02 1.06 1.11 1.13 1.16 1.15 1.05 1.01 0.98 0.95 0.94 0.98 1.02 1.10 1.13 1.14 1.15 1.12 1.10 1.11 1.12 1.13 1.16 1.21 1.26 1.28 1.30 1.31 1.24 1.12 1.19 1.20 1.07 1.04 0.96 0.97 1.00 1.05 1.15 1.42 1.44 1.46 1.63 1.72 1.64 1.65 1.69 1.78 1.83 1.87 1.86 1.84 1.85 1.86 1.81 1.76 1.76 1.80 1.81 1.77 1.74 1.70 1.68 1.67 1.67 1.68 1.67 1.64 1.60
0.90 0.90 0.91 0.95 0.99 1.02 1.07 1.09 1.09 1.10 1.08 1.04 1.01 0.98 0.95 0.95 0.96 1.01 1.08 1.06 1.04 1.04 1.04 1.07 1.11 1.10 1.13 1.16 1.20 1.26 1.30 1.33 1.35 1.34 1.30 1.31 1.23 1.11 1.08 1.06 1.04 0.95 0.95 1.15 1.46 1.41 1.51 1.57 1.67 1.66 1.56 1.47 1.69 1.87 1.84 1.81 1.85 1.88 1.85 1.80 1.75 1.72 1.72 1.75 1.74 1.73 1.72 1.72 1.69 1.68 1.68 1.66 1.63 1.58
0.87 0.88 0.90 0.94 1.00 1.05 1.06 1.02 1.00 1.01 1.04 1.03 1.03 1.01 0.98 0.97 0.95 1.05 1.04 1.05 1.06 1.06 1.06 1.09 1.12 1.11 1.12 1.13 1.18 1.24 1.29 1.34 1.38 1.37 1.37 1.36 1.31 1.20 1.14 1.10 1.05 0.93 0.93 1.20 1.51 1.49 1.60 1.66 1.57 1.70 1.57 1.42 1.40 1.63 1.73 1.73 1.78 1.84 1.81 1.75 1.68 1.70 1.72 1.74 1.74 1.75 1.77 1.76 1.73 1.70 1.69 1.66 1.64 1.59
0.86 0.87 0.92 0.96 1.02 1.01 0.97 0.96 0.98 1.02 1.04 1.05 1.04 1.03 1.00 1.02 1.04 1.06 1.04 1.08 1.12 1.09 1.08 1.09 1.12 1.12 1.12 1.11 1.16 1.21 1.27 1.33 1.38 1.41 1.40 1.40 1.37 1.27 1.16 1.09 1.05 1.01 1.06 1.32 1.63 1.58 1.52 1.63 1.57 1.66 1.65 1.60 1.58 1.57 1.65 1.68 1.78 1.82 1.79 1.73 1.68 1.72 1.72 1.73 1.76 1.79 1.79 1.77 1.73 1.70 1.67 1.67 1.66 1.63
0.89 0.92 0.96 0.99 1.00 0.96 0.95 0.98 1.02 1.03 1.03 1.03 1.03 1.03 1.04 1.04 1.04 1.04 1.08 1.11 1.12 1.10 1.09 1.09 1.10 1.12 1.10 1.08 1.12 1.17 1.23 1.32 1.38 1.41 1.42 1.42 1.38 1.33 1.26 1.16 1.07 1.00 1.06 1.35 1.60 1.68 1.64 1.56 1.58 1.57 1.61 1.61 1.61 1.67 1.62 1.66 1.77 1.82 1.80 1.76 1.72 1.70 1.71 1.68 1.69 1.71 1.74 1.74 1.71 1.68 1.66 1.68 1.70 1.70
0.92 0.96 0.97 0.97 0.96 0.95 0.97 1.00 1.01 1.02 1.01 1.01 1.01 1.01 1.01 1.02 1.03 1.05 1.07 1.09 1.09 1.08 1.08 1.08 1.07 1.09 1.10 1.08 1.09 1.13 1.17 1.27 1.37 1.42 1.44 1.42 1.38 1.33 1.29 1.26 1.24 1.20 1.32 1.49 1.66 1.75 1.77 1.67 1.72 1.59 1.56 1.65 1.61 1.64 1.64 1.61 1.65 1.80 1.76 1.74 1.72 1.74 1.77 1.71 1.64 1.64 1.68 1.72 1.74 1.73 1.70 1.70 1.72 1.73
0.93 0.90 0.89 0.90 0.94 0.95 0.96 0.97 0.99 0.99 1.00 0.99 1.00 0.99 0.99 1.01 1.01 1.03 1.05 1.06 1.06 1.06 1.06 1.05 1.04 1.04 1.08 1.11 1.09 1.11 1.17 1.24 1.37 1.41 1.41 1.39 1.41 1.35 1.31 1.30 1.30 1.34 1.41 1.48 1.60 1.71 1.76 1.73 1.76 1.75 1.71 1.67 1.58 1.52 1.53 1.67 1.68 1.66 1.60 1.72 1.74 1.75 1.78 1.77 1.70 1.67 1.70 1.73 1.73 1.71 1.65 1.61 1.65 1.69
0.89 0.86 0.86 0.90 0.94 0.95 0.95 0.94 0.94 0.94 0.95 0.97 0.97 0.98 0.98 0.99 0.97 0.99 1.02 1.03 1.03 1.00 1.01 1.03 1.03 1.02 1.08 1.13 1.12 1.14 1.21 1.27 1.34 1.39 1.39 1.38 1.39 1.38 1.34 1.34 1.34 1.37 1.42 1.47 1.55 1.70 1.78 1.79 1.75 1.82 1.80 1.74 1.63 1.62 1.61 1.54 1.55 1.56 1.61 1.59 1.56 1.65 1.70 1.74 1.71 1.64 1.62 1.67 1.68 1.68 1.65 1.65 1.62 1.65
0.85 0.84 0.88 0.92 0.93 0.91 0.89 0.88 0.86 0.86 0.88 0.91 0.93 0.95 0.96 0.96 0.95 0.95 0.97 1.00 0.99 0.97 1.00 1.01 1.00 1.02 1.10 1.15 1.15 1.14 1.18 1.22 1.24 1.32 1.32 1.32 1.32 1.34 1.32 1.28 1.30 1.38 1.44 1.50 1.59 1.72 1.83 1.87 1.88 1.85 1.80 1.72 1.71 1.65 1.63 1.55 1.49 1.54 1.58 1.55 1.60 1.69 1.68 1.65 1.64 1.69 1.71 1.69 1.73 1.74 1.77 1.78 1.73 1.67
0.84 0.86 0.89 0.90 0.90 0.88 0.86 0.84 0.84 0.83 0.86 0.87 0.89 0.91 0.91 0.92 0.91 0.91 0.93 0.96 0.98 0.98 0.98 0.99 1.01 1.06 1.11 1.16 1.15 1.09 1.12 1.15 1.22 1.34 1.31 1.30 1.29 1.32 1.32 1.31 1.29 1.35 1.50 1.60 1.69 1.78 1.84 1.89 1.94 1.93 1.76 1.70 1.73 1.75 1.77 1.72 1.59 1.60 1.60 1.66 1.67 1.48 1.54 1.58 1.57 1.59 1.66 1.70 1.71 1.73 1.76 1.79 1.79 1.80
0.84 0.87 0.89 0.89 0.88 0.85 0.81 0.80 0.80 0.81 0.82 0.83 0.83 0.84 0.85 0.85 0.86 0.87 0.90 0.95 0.99 0.99 1.00 1.01 1.04 1.06 1.07 1.08 1.12 1.11 1.09 1.12 1.18 1.27 1.27 1.27 1.28 1.30 1.28 1.21 1.21 1.33 1.44 1.55 1.65 1.74 1.85 1.90 1.91 1.95 1.88 1.78 1.62 1.65 1.69 1.67 1.58 1.58 1.58 1.64 1.67 1.68 1.67 1.55 1.50 1.51 1.62 1.65 1.63 1.62 1.66 1.72 1.77 1.82
0.84 0.85 0.83 0.81 0.80 0.77 0.74 0.72 0.74 0.75 0.75 0.76 0.77 0.78 0.78 0.79 0.80 0.81 0.82 0.82 0.87 0.93 0.95 0.95 0.97 1.00 1.03 1.06 1.12 1.11 1.08 1.07 1.13 1.22 1.20 1.23 1.26 1.29 1.26 1.21 1.23 1.28 1.31 1.39 1.53 1.66 1.76 1.83 1.91 1.91 1.87 1.76 1.73 1.69 1.59 1.47 1.51 1.55 1.54 1.61 1.62 1.62 1.70 1.73 1.62 1.56 1.57 1.54 1.55 1.62 1.66 1.75 1.82 1.88
0.80 0.78 0.76 0.76 0.75 0.72 0.69 0.68 0.69 0.69 0.68 0.68 0.68 0.70 0.72 0.74 0.74 0.75 0.76 0.77 0.80 0.86 0.88 0.91 0.92 0.94 0.98 1.02 1.06 1.09 1.08 1.07 1.10 1.15 1.16 1.16 1.22 1.25 1.25 1.24 1.26 1.30 1.32 1.34 1.43 1.52 1.64 1.75 1.81 1.82 1.82 1.77 1.77 1.68 1.62 1.49 1.46 1.52 1.57 1.60 1.61 1.61 1.73 1.78 1.74 1.69 1.56 1.46 1.42 1.46 1.55 1.64 1.76 1.88
0.77 0.75 0.73 0.73 0.74 0.71 0.69 0.67 0.65 0.62 0.60 0.58 0.59 0.62 0.67 0.69 0.70 0.70 0.70 0.71 0.75 0.76 0.78 0.81 0.85 0.88 0.91 0.96 1.02 1.06 1.10 1.10 1.09 1.10 1.13 1.15 1.17 1.21 1.26 1.25 1.28 1.31 1.32 1.32 1.36 1.43 1.50 1.61 1.66 1.64 1.60 1.57 1.51 1.56 1.62 1.58 1.49 1.48 1.52 1.54 1.60 1.62 1.66 1.66 1.70 1.71 1.76 1.62 1.58 1.47 1.46 1.51 1.59 1.77
0.77 0.77 0.76 0.74 0.73 0.71 0.67 0.64 0.62 0.60 0.57 0.55 0.55 0.57 0.59 0.61 0.62 0.63 0.64 0.68 0.69 0.70 0.70 0.71 0.74 0.77 0.81 0.88 0.95 1.02 1.08 1.11 1.09 1.09 1.10 1.11 1.13 1.16 1.22 1.26 1.29 1.32 1.34 1.35 1.38 1.44 1.48 1.50 1.53 1.51 1.42 1.38 1.33 1.25 1.32 1.52 1.52 1.50 1.45 1.45 1.56 1.63 1.69 1.70 1.73 1.76 1.74 1.65 1.62 1.56 1.46 1.44 1.52 1.69
0.78 0.79 0.78 0.75 0.72 0.69 0.64 0.63 0.62 0.59 0.57 0.54 0.54 0.55 0.54 0.55 0.57 0.59 0.61 0.64 0.64 0.64 0.65 0.65 0.65 0.68 0.72 0.78 0.86 0.95 1.02 1.07 1.08 1.08 1.10 1.14 1.15 1.15 1.16 1.21 1.25 1.30 1.33 1.35 1.40 1.43 1.45 1.43 1.43 1.39 1.33 1.36 1.30 1.23 1.27 1.43 1.49 1.57 1.50 1.45 1.53 1.64 1.70 1.73 1.71 1.68 1.71 1.67 1.62 1.59 1.52 1.52 1.58 1.74
0.78 0.78 0.77 0.76 0.73 0.70 0.67 0.64 0.62 0.58 0.55 0.53 0.52 0.53 0.52 0.52 0.54 0.54 0.57 0.57 0.57 0.59 0.60 0.59 0.60 0.62 0.64 0.69 0.75 0.83 0.92 1.01 1.06 1.07 1.09 1.14 1.14 1.13 1.15 1.17 1.21 1.24 1.30 1.36 1.38 1.41 1.42 1.39 1.38 1.37 1.34 1.29 1.30 1.26 1.23 1.34 1.41 1.49 1.58 1.54 1.51 1.60 1.70 1.65 1.62 1.60 1.61 1.67 1.63 1.66 1.68 1.63 1.67 1.80
0.76 0.74 0.72 0.71 0.70 0.68 0.64 0.63 0.61 0.57 0.55 0.53 0.51 0.50 0.49 0.48 0.49 0.51 0.52 0.52 0.54 0.53 0.54 0.53 0.53 0.55 0.57 0.62 0.68 0.74 0.81 0.90 0.96 1.01 1.05 1.08 1.12 1.14 1.14 1.15 1.17 1.23 1.25 1.28 1.32 1.33 1.36 1.37 1.38 1.39 1.38 1.31 1.30 1.32 1.35 1.29 1.29 1.42 1.54 1.62 1.61 1.59 1.61 1.61 1.59 1.64 1.64 1.58 1.60 1.71 1.75 1.77 1.86 1.90
0.72 0.70 0.68 0.66 0.63 0.62 0.61 0.61 0.58 0.56 0.52 0.49 0.47 0.48 0.46 0.44 0.45 0.47 0.47 0.49 0.49 0.49 0.47 0.46 0.46 0.47 0.50 0.55 0.61 0.67 0.73 0.81 0.89 0.96 1.01 1.05 1.08 1.13 1.15 1.15 1.13 1.18 1.20 1.22 1.24 1.27 1.27 1.34 1.40 1.41 1.41 1.41 1.43 1.48 1.51 1.50 1.45 1.46 1.49 1.57 1.62 1.60 1.59 1.60 1.57 1.59 1.63 1.66 1.65 1.60 1.59 1.66 1.60 1.68
0.68 0.64 0.63 0.63 0.61 0.58 0.56 0.55 0.55 0.53 0.50 0.48 0.46 0.46 0.44 0.43 0.42 0.43 0.44 0.43 0.42 0.39 0.39 0.39 0.40 0.41 0.44 0.48 0.54 0.58 0.63 0.71 0.79 0.89 0.96 1.00 1.05 1.08 1.11 1.13 1.10 1.13 1.13 1.14 1.20 1.24 1.29 1.35 1.42 1.48 1.49 1.50 1.52 1.54 1.48 1.41 1.34 1.34 1.37 1.45 1.55 1.60 1.62 1.64 1.59 1.59 1.60 1.70 1.79 1.65 1.54 1.54 1.53 1.56
0.63 0.61 0.61 0.60 0.58 0.56 0.54 0.51 0.51 0.50 0.49 0.48 0.46 0.44 0.41 0.39 0.38 0.37 0.35 0.36 0.36 0.37 0.36 0.36 0.37 0.39 0.41 0.44 0.47 0.52 0.55 0.62 0.67 0.76 0.87 0.93 0.96 1.02 1.08 1.11 1.11 1.10 1.10 1.09 1.13 1.20 1.32 1.40 1.38 1.39 1.41 1.41 1.39 1.31 1.28 1.33 1.32 1.33 1.36 1.41 1.47 1.55 1.59 1.60 1.62 1.60 1.58 1.62 1.68 1.57 1.52 1.58 1.64 1.54
0.61 0.59 0.58 0.58 0.57 0.54 0.51 0.48 0.46 0.45 0.44 0.44 0.41 0.38 0.32 0.28 0.29 0.30 0.32 0.33 0.34 0.34 0.34 0.34 0.34 0.36 0.37 0.40 0.42 0.46 0.48 0.54 0.61 0.65 0.73 0.85 0.91 0.93 0.99 1.05 1.08 1.10 1.12 1.15 1.19 1.22 1.26 1.31 1.33 1.29 1.30 1.31 1.31 1.31 1.25 1.28 1.31 1.33 1.36 1.39 1.42 1.48 1.53 1.57 1.59 1.59 1.55 1.57 1.72 1.70 1.64 1.55 1.45 1.35
0.59 0.57 0.56 0.55 0.53 0.51 0.49 0.47 0.44 0.42 0.39 0.34 0.30 0.28 0.25 0.26 0.27 0.29 0.31 0.31 0.32 0.31 0.31 0.30 0.29 0.30 0.32 0.35 0.38 0.39 0.42 0.47 0.55 0.59 0.64 0.73 0.84 0.90 0.93 0.98 1.03 1.07 1.10 1.13 1.17 1.19 1.21 1.24 1.28 1.27 1.18 1.19 1.23 1.25 1.25 1.26 1.26 1.30 1.31 1.35 1.41 1.43 1.42 1.48 1.52 1.54 1.54 1.55 1.62 1.78 1.79 1.74 1.72 1.73
0.57 0.54 0.52 0.51 0.49 0.47 0.45 0.43 0.40 0.36 0.29 0.23 0.23 0.22 0.22 0.24 0.25 0.27 0.28 0.29 0.29 0.29 0.28 0.27 0.26 0.26 0.28 0.31 0.33 0.33 0.36 0.40 0.47 0.54 0.59 0.64 0.72 0.84 0.90 0.94 0.97 1.01 1.05 1.10 1.12 1.14 1.16 1.18 1.24 1.27 1.21 1.19 1.20 1.22 1.27 1.28 1.26 1.25 1.25 1.25 1.26 1.31 1.33 1.35 1.34 1.36 1.40 1.44 1.53 1.61 1.67 1.69 1.69 1.70
Wind_Speed
23 23 23 23 23 24 24 25 25 25 26 26 27 28 28 28 27 27 26 25 25 25 26 26 27 27 28 28 29 30 31 33 35 36 37 38 38 39 39 40 40 41 41 41 42 43 43 43 43 43 43 43 43 42 42 42 41 41 41 41 40 39 38 37 36 34 33 32 32 31 30 30 29 29
24 24 24 24 24 25 25 26 26 26 27 27 28 29 29 29 29 28 28 26 26 26 27 28 29 30 30 30 30 30 31 33 34 36 37 38 38 39 40 41 41 41 42 42 42 43 44 43 43 43 43 43 43 43 42 42 42 42 42 42 41 41 40 39 37 36 35 34 33 32 32 31 31 30
24 25 25 25 25 25 26 26 27 27 27 28 29 29 29 29 30 29 28 27 26 27 28 29 30 31 31 32 32 31 31 32 34 35 36 38 39 39 40 41 42 42 43 43 43 44 45 45 44 44 44 43 42 43 43 42 42 43 43 43 42 42 41 40 39 38 37 36 35 34 33 33 32 31
25 26 26 26 26 26 27 28 28 28 28 29 29 30 30 30 31 30 29 29 28 28 29 29 30 31 32 32 32 32 32 32 33 35 36 37 39 40 40 40 41 42 43 44 44 44 45 46 46 45 45 44 43 42 42 42 42 43 43 43 43 42 42 41 41 40 38 37 36 35 34 34 33 32
26 26 26 27 28 28 28 28 28 28 29 30 30 30 30 31 31 31 30 30 29 29 29 30 30 31 31 32 32 33 33 33 33 34 35 37 38 39 40 40 41 41 43 44 44 44 45 46 47 47 46 46 44 43 42 42 42 42 43 43 43 43 43 42 42 41 40 39 38 37 36 35 34 33
26 27 27 28 29 28 28 28 28 29 30 31 31 31 31 31 31 31 30 30 30 29 30 30 31 31 32 32 33 33 34 34 34 34 35 36 37 39 40 40 41 41 42 43 44 44 44 46 47 47 47 47 46 44 43 43 42 42 43 43 43 43 43 43 42 42 41 40 39 38 37 36 35 34
27 27 28 29 29 28 28 29 30 31 31 31 31 31 31 31 31 30 30 30 30 30 30 30 31 32 32 33 33 34 34 34 34 35 35 36 37 38 40 40 41 42 42 43 43 44 44 45 46 47 47 47 47 45 44 43 42 42 42 43 43 43 43 43 43 42 41 41 40 39 38 37 36 35
27 28 28 29 29 28 29 30 31 31 32 31 31 31 31 30 29 29 29 29 30 30 31 31 31 32 33 34 34 34 35 34 35 35 36 36 37 38 39 40 40 42 43 43 43 43 43 44 46 47 47 46 46 46 44 43 42 42 42 42 43 43 43 43 43 42 42 41 40 39 38 37 36 36
28 28 28 29 29 29 29 30 31 31 31 31 31 32 31 30 30 29 29 30 30 31 31 32 32 33 34 34 34 35 35 35 35 35 36 36 37 38 39 40 40 41 42 43 43 43 43 44 45 46 47 46 45 45 45 43 42 41 41 41 42 42 42 42 42 42 42 41 41 40 39 38 37 36
28 28 29 29 29 29 29 30 31 30 30 30 31 32 32 32 31 31 31 31 31 31 31 32 33 34 34 35 35 35 35 36 35 36 36 36 36 37 38 39 39 39 41 42 42 42 42 43 44 45 46 46 45 45 44 43 42 41 41 40 40 41 41 41 42 42 42 41 41 40 40 39 38 37
28 29 29 29 28 28 29 30 30 30 30 30 31 32 32 32 31 32 32 31 31 31 32 33 34 34 35 36 36 36 36 36 35 35 36 36 36 37 38 39 39 39 40 42 43 43 42 43 44 45 46 46 45 45 45 44 43 42 41 40 40 40 40 41 41 42 42 41 40 40 39 39 39 38
28 29 29 28 28 28 29 29 29 29 29 29 30 31 30 30 30 30 30 30 31 32 33 33 34 35 36 37 37 36 36 35 35 35 35 36 37 37 38 39 39 39 40 41 42 43 42 42 43 44 45 45 45 45 45 44 43 43 42 41 40 40 40 40 40 41 41 41 41 40 39 39 39 38
29 29 28 28 28 28 28 28 28 28 29 29 29 29 29 28 28 28 29 29 31 32 33 33 34 35 36 37 37 36 35 35 35 35 35 36 37 38 38 39 39 40 40 40 41 42 42 41 41 43 44 45 45 45 45 44 44 43 43 42 41 40 40 40 40 40 41 41 41 40 39 39 38 38
29 29 28 28 28 28 28 28 28 28 28 29 28 28 27 27 27 27 28 29 30 31 32 33 34 35 36 37 38 37 36 36 35 35 35 35 37 38 38 38 39 39 39 40 40 41 41 41 40 42 43 44 44 44 44 44 44 43 43 42 41 41 40 40 39 39 40 40 40 40 39 39 38 38
30 30 29 28 28 28 28 27 28 28 28 28 28 27 27 27 27 28 29 29 30 31 32 34 35 36 37 38 39 38 37 36 35 34 34 35 36 37 38 37 38 38 39 39 39 40 41 41 40 41 42 43 43 43 43 44 44 43 43 43 42 42 41 40 39 39 39 39 39 39 39 38 38 37
31 30 29 28 28 28 27 27 28 28 28 27 27 26 26 26 27 28 28 29 30 31 33 34 35 37 38 38 38 37 36 35 34 33 33 34 35 37 38 38 38 38 38 38 38 38 39 40 40 40 41 42 43 42 42 43 43 43 43 43 43 42 42 41 40 38 38 38 39 39 39 38 38 37
31 30 29 28 28 28 28 27 27 27 27 26 26 26 26 26 27 27 28 28 30 32 33 35 36 37 38 38 38 36 35 34 33 32 32 33 34 36 39 39 39 39 39 39 38 37 38 40 40 40 40 41 41 41 41 42 42 42 42 42 42 42 42 41 40 38 38 38 38 38 38 38 38 37
30 29 28 28 28 28 28 27 27 27 26 26 26 26 26 26 27 27 28 28 30 31 33 34 36 37 38 38 37 36 34 33 32 31 32 33 34 36 38 40 40 40 40 39 38 37 37 39 40 39 39 40 40 40 39 40 41 41 41 40 41 41 41 40 39 38 38 37 37 38 38 38 38 37
29 28 28 28 28 28 28 27 27 26 26 26 26 26 26 26 27 27 27 28 30 31 32 34 35 37 38 38 37 35 33 33 32 31 32 33 34 35 37 40 40 41 41 41 39 37 36 37 39 39 38 39 39 39 39 39 40 40 40 40 40 40 40 40 39 38 37 37 37 37 38 37 37 37
28 28 28 29 29 29 29 28 27 26 26 26 26 26 26 27 27 27 27 28 30 31 32 33 35 37 38 38 36 35 33 33 32 32 32 32 33 34 36 38 40 40 41 41 40 37 35 36 37 38 38 38 39 39 38 38 39 40 40 39 39 39 39 39 38 38 37 36 36 36 37 37 37 37
28 28 29 30 30 29 28 27 26 26 26 26 26 26 26 26 26 26 27 28 29 30 31 33 35 37 37 36 35 34 33 32 32 32 32 32 31 32 34 37 38 39 40 40 39 38 36 35 35 36 37 38 38 38 37 37 38 39 39 39 39 39 38 38 37 37 36 36 35 36 36 36 37 36
28 29 30 30 29 29 27 26 25 25 26 26 26 26 26 25 26 26 26 27 28 29 30 32 34 36 36 35 34 33 32 32 31 31 31 31 29 30 33 35 37 38 39 39 38 37 35 35 35 35 36 37 36 36 36 36 36 36 36 37 37 37 37 37 37 37 36 35 35 35 35 36 36 35
29 29 30 29 28 27 26 25 25 25 25 25 25 25 25 25 25 26 26 27 27 28 30 31 33 35 35 33 33 32 32 31 28 28 28 27 26 29 32 35 36 36 37 38 38 35 34 34 35 35 35 35 35 35 36 36 35 34 34 35 35 36 36 36 36 36 36 35 34 34 34 35 34 34
30 29 29 28 27 26 25 25 25 25 25 24 24 24 24 24 25 25 26 26 27 28 29 30 32 33 34 33 32 31 30 28 25 24 24 23 24 26 30 34 36 36 35 36 36 35 33 34 35 35 36 35 33 34 35 36 35 34 34 34 34 34 35 35 35 35 35 35 34 34 34 34 34 34
29 28 28 26 25 24 24 24 24 24 24 23 23 23 23 24 25 25 25 25 26 28 29 29 30 32 34 33 31 29 28 26 23 21 20 20 22 25 28 32 35 36 36 35 34 33 32 33 33 34 35 35 34 33 34 35 35 34 34 34 34 34 34 34 34 34 35 35 34 34 34 34 35 34
28 27 26 25 23 23 23 23 22 22 22 22 22 22 23 24 24 24 24 24 25 27 28 28 29 31 32 32 29 28 27 24 21 19 18 18 21 24 27 31 33 35 36 35 33 31 30 31 33 33 34 34 33 33 33 33 33 33 33 33 34 33 34 34 34 34 35 34 34 34 34 34 35 35
26 25 24 23 22 22 21 21 21 21 21 21 21 22 22 23 23 22 22 23 24 26 27 27 28 29 29 29 28 27 26 24 20 19 17 15 19 23 25 29 33 34 35 35 33 30 29 29 32 33 34 33 32 32 33 32 32 33 33 32 33 33 33 34 35 35 35 35 34 34 34 34 34 35
24 23 22 22 21 20 20 20 20 20 20 21 21 21 21 21 21 21 21 22 23 25 26 26 27 27 27 27 26 25 25 23 20 17 15 12 14 20 23 27 31 33 35 35 33 30 28 28 30 33 34 34 32 32 32 32 33 33 33 32 32 32 32 33 34 35 35 35 35 34 34 34 34 34
22 22 21 21 20 19 19 19 19 20 20 20 20 20 20 20 20 20 20 21 22 24 25 25 26 26 25 25 26 25 23 22 20 16 13 9 9 16 22 25 28 31 33 34 34 31 28 27 28 31 33 34 33 32 31 32 32 33 34 32 31 31 31 32 33 34 35 35 35 35 35 35 35 35
21 21 20 19 18 18 18 19 19 19 19 19 19 19 18 18 19 19 19 20 21 23 24 25 25 25 24 24 24 24 22 20 19 16 11 8 5 9 18 23 26 28 30 32 33 31 28 27 27 29 31 32 32 31 30 29 30 32 33 33 32 31 31 31 32 32 34 35 35 36 36 36 36 35
20 19 19 18 17 17 18 18 18 18 18 18 17 17 17 18 18 18 19 19 20 21 23 24 24 24 24 23 23 23 21 18 17 16 10 6 4 5 13 19 23 25 27 29 31 30 28 27 27 28 29 30 30 30 30 29 29 30 32 33 33 32 32 32 32 32 33 34 35 36 36 36 36 36
19 19 18 18 17 17 18 18 18 17 17 17 17 17 17 17 18 18 19 19 20 20 21 23 23 23 23 22 22 22 20 17 16 15 10 6 3 3 9 14 18 20 22 25 27 28 27 27 27 27 28 28 29 29 30 29 29 29 30 31 32 32 32 32 32 33 33 34 34 35 36 36 36 36
18 18 18 17 17 17 17 18 17 17 16 16 17 17 17 18 18 18 18 19 19 20 20 21 22 22 22 21 20 20 20 17 15 14 10 6 2 2 6 10 13 15 18 21 23 25 26 26 27 27 26 26 27 28 29 29 29 28 29 29 29 30 30 31 32 33 34 34 34 34 34 35 35 36
18 18 18 17 17 17 17 17 16 16 17 17 18 18 18 18 17 18 18 18 18 19 20 20 21 21 22 21 20 19 18 17 15 13 10 6 2 2 5 8 10 12 15 17 20 23 24 25 26 27 26 25 26 27 27 28 28 28 29 29 28 27 27 28 30 31 33 34 33 33 33 34 35 35
17 18 17 17 17 17 16 16 16 16 16 17 17 18 18 17 17 17 17 17 18 18 19 19 19 20 21 21 20 18 17 16 14 13 11 7 3 2 4 7 10 11 13 15 18 21 22 23 24 25 26 26 26 26 26 27 28 29 29 29 28 26 25 26 27 28 30 31 32 32 32 33 34 34
17 17 17 17 16 16 15 15 15 15 16 16 17 17 17 17 16 16 17 17 17 17 18 18 18 19 19 20 19 18 17 15 14 12 11 8 5 2 2 5 8 10 12 13 15 19 22 22 22 23 24 26 27 27 27 26 27 28 29 29 28 27 26 25 26 26 27 28 29 30 31 32 32 33
16 17 16 16 16 15 15 15 15 15 16 16 16 16 16 16 16 16 16 16 16 17 17 18 18 18 18 18 18 18 17 15 14 12 11 9 6 3 2 3 5 7 10 11 13 16 20 22 22 22 23 24 26 26 26 26 26 27 28 30 29 28 26 26 26 26 27 27 28 29 30 30 31 31
16 16 16 16 15 15 15 15 15 16 16 16 16 16 16 16 16 15 15 15 16 16 17 17 17 18 17 17 17 17 16 15 13 12 11 9 7 5 3 2 2 4 7 9 11 13 17 19 20 21 22 23 24 25 25 26 25 25 27 29 30 30 28 27 26 27 28 28 28 29 29 30 30 29
16 15 15 15 15 15 15 16 16 16 16 16 16 15 15 15 15 15 15 15 15 16 16 16 17 17 17 16 15 15 15 14 13 12 11 10 8 6 5 3 2 2 4 6 8 10 13 15 16 18 19 20 21 22 23 24 24 23 23 25 28 29 29 28 27 27 28 28 28 28 28 28 28 28
16 16 16 15 15 15 15 15 16 16 16 16 15 15 15 15 15 15 15 15 15 15 15 16 16 16 16 15 15 14 13 13 13 12 12 11 9 7 6 4 3 2 2 3 5 7 9 11 12 15 17 19 19 19 19 20 21 21 21 22 23 26 28 28 27 27 26 27 28 28 28 28 28 28
16 16 16 15 15 15 15 15 15 15 15 15 15 16 16 15 15 15 15 14 14 14 14 14 15 15 15 14 14 13 12 11 12 12 12 11 9 8 7 5 4 3 2 1 3 5 7 8 10 12 15 17 18 19 18 17 18 19 20 20 21 21 23 26 27 27 26 26 27 28 28 28 28 28
16 16 15 15 15 15 15 15 15 15 15 15 15 16 16 15 15 14 14 13 13 13 13 14 14 14 14 14 13 12 11 10 10 11 11 11 10 8 7 6 4 3 2 1 2 4 6 7 8 9 11 13 14 16 17 17 16 17 18 19 20 20 20 21 22 24 24 25 27 28 28 27 27 27
15 15 15 15 15 15 15 15 15 15 15 15 15 15 15 14 14 13 12 12 12 12 12 13 13 13 13 13 12 12 11 10 10 9 9 10 10 8 7 7 5 3 2 1 1 2 5 7 7 8 9 10 11 13 15 16 16 16 16 17 18 19 19 18 18 18 18 19 22 26 26 27 27 28
15 15 15 15 15 15 15 15 15 15 15 15 14 14 13 12 12 11 11 11 11 11 11 12 12 11 11 11 11 11 11 10 9 9 8 8 8 8 7 7 6 4 3 1 0 1 3 5 6 7 8 9 10 11 11 12 13 13 14 15 15 16 17 17 17 17 15 14 16 20 22 22 23 24
14 14 14 14 14 14 14 14 14 14 14 13 12 12 11 11 10 10 10 10 10 10 11 11 10 10 10 10 10 11 11 10 9 9 8 7 7 7 7 6 6 5 4 2 1 0 2 3 5 6 8 9 10 11 10 10 10 11 11 12 13 14 15 16 15 16 15 13 13 15 18 18 18 19
Wind_Direction
302 302 301 300 300 301 302 303 303 303 304 304 304 304 305 304 303 301 299 296 291 289 290 288 288 291 292 289 286 281 275 270 265 260 257 256 254 251 249 247 245 243 242 240 239 238 238 237 236 236 235 235 235 235 236 236 237 237 237 237 237 237 238 238 238 239 239 240 241 242 242 243 244 245
302 301 300 299 300 301 301 302 302 303 303 303 303 303 303 303 303 301 299 296 292 290 291 289 288 290 291 290 289 285 279 274 268 262 258 255 254 252 250 247 245 243 242 240 239 238 237 237 236 236 235 234 234 235 236 236 237 236 236 237 237 237 238 238 239 239 240 240 241 242 243 243 244 245
301 300 299 299 299 300 301 302 302 302 302 302 302 302 302 302 302 300 298 296 293 292 292 291 291 291 291 291 289 287 283 278 271 265 259 255 254 253 250 247 245 244 242 240 239 238 237 237 236 235 234 234 235 235 236 236 237 237 236 236 237 237 238 238 239 239 240 240 241 242 243 244 244 245
301 300 299 299 299 300 300 301 301 301 301 301 302 301 300 301 300 299 297 296 294 294 293 293 294 294 292 291 289 287 285 281 275 267 261 257 254 252 250 248 245 244 242 241 240 239 237 236 236 235 234 234 235 235 235 236 237 237 236 236 237 237 238 238 239 239 240 241 241 242 243 244 244 245
302 301 300 299 299 299 299 299 299 300 300 300 301 301 299 299 299 297 296 295 295 294 294 294 295 295 294 292 290 287 284 282 277 270 263 258 254 251 249 248 246 243 241 240 240 239 237 236 235 235 234 234 235 235 236 236 238 237 236 236 236 237 237 238 239 239 240 240 241 242 242 243 244 245
302 301 300 300 300 299 298 297 298 299 299 300 300 300 299 298 297 296 294 295 295 294 295 295 295 295 294 292 291 289 285 282 278 272 264 259 254 251 248 247 246 244 241 240 239 239 237 236 235 234 234 234 235 236 236 237 237 237 236 236 236 236 237 238 238 239 240 240 240 241 242 243 243 244
303 302 301 301 301 299 297 297 298 298 298 298 298 298 299 298 296 295 294 294 294 295 296 296 296 296 294 293 292 290 286 282 278 273 266 259 255 251 248 247 245 244 242 240 239 238 237 236 235 234 234 234 234 235 236 236 236 236 235 235 236 236 237 237 238 239 239 239 240 240 241 242 243 243
303 303 302 302 300 298 296 296 297 298 298 297 297 297 297 297 296 296 294 294 294 295 296 297 297 297 295 294 293 290 287 283 278 273 268 261 255 251 248 246 245 243 242 240 238 238 237 236 235 233 233 233 233 234 235 235 235 235 235 235 235 236 237 237 237 238 238 239 239 240 240 241 242 243
304 304 303 302 301 298 297 298 298 298 297 297 296 296 295 295 295 295 295 295 295 295 296 297 297 298 297 296 295 291 287 284 279 274 269 262 255 251 248 246 244 242 241 239 237 237 237 236 235 233 232 232 233 233 233 233 234 234 235 235 235 236 236 237 237 237 238 238 238 239 240 241 241 242
306 304 303 303 302 299 298 299 299 298 298 297 296 295 294 293 292 292 293 294 294 295 296 298 298 299 299 298 296 293 288 284 280 276 271 263 255 250 247 245 243 241 239 237 236 236 236 236 234 232 231 231 232 232 232 232 232 233 234 234 235 235 236 236 236 237 237 237 238 238 239 240 240 241
306 305 304 304 303 300 300 301 300 299 299 298 297 296 295 293 290 290 291 292 293 294 296 298 298 299 300 299 297 295 290 285 280 276 271 264 256 251 247 244 242 240 239 237 236 235 235 235 234 232 231 231 232 231 231 231 232 233 233 234 235 235 236 236 236 236 236 237 237 237 238 239 239 240
307 306 305 305 303 302 301 302 301 300 301 300 299 298 296 294 291 290 291 292 294 295 296 298 298 299 300 300 299 296 292 285 280 276 271 264 258 252 247 244 242 240 239 237 236 235 235 234 233 232 231 231 231 231 231 232 233 233 233 234 234 235 236 236 236 235 236 236 236 237 237 238 238 239
308 306 305 305 305 303 301 301 301 301 302 301 301 300 298 294 292 291 292 294 295 297 298 299 300 300 300 301 300 297 293 287 281 276 270 263 258 253 248 243 241 239 238 237 235 235 234 233 233 231 230 230 230 230 231 231 232 233 233 233 234 235 235 235 235 235 235 235 236 236 237 237 237 238
308 306 305 305 305 304 302 301 301 301 302 301 301 300 297 295 294 293 294 296 297 299 300 301 302 301 301 301 300 297 294 289 282 276 269 263 258 253 248 243 239 237 236 236 235 234 233 232 232 231 230 230 230 230 230 231 232 232 233 233 234 234 234 234 234 234 234 234 235 235 236 236 236 236
307 306 305 304 304 304 304 302 301 301 301 301 300 298 296 295 295 295 296 297 298 300 302 303 303 303 302 301 300 297 294 290 283 275 268 261 256 252 247 241 237 235 234 234 235 234 232 231 231 231 230 229 229 229 230 231 232 232 233 233 233 233 233 233 234 234 234 233 234 234 234 234 234 235
307 306 305 304 304 304 304 303 302 301 300 299 299 297 296 296 297 297 297 298 299 302 304 304 304 304 303 302 301 298 294 290 284 276 268 261 255 250 246 241 236 234 233 234 234 234 232 230 230 231 229 228 228 229 230 230 231 231 232 232 232 231 231 232 234 234 233 233 233 233 233 233 234 234
308 306 305 306 306 305 304 303 303 302 300 299 298 298 297 297 298 298 297 297 299 303 305 305 305 307 306 304 302 299 294 289 285 278 269 262 255 249 245 241 237 234 232 233 234 234 232 230 230 230 228 227 226 227 228 229 229 229 230 230 230 230 230 231 233 233 233 233 232 232 232 232 233 233
308 306 305 307 307 306 304 303 303 301 301 300 299 298 298 298 298 298 297 298 301 304 307 307 307 309 310 308 304 300 294 289 285 279 271 264 257 250 245 242 237 233 231 231 232 232 231 229 229 229 227 225 225 225 227 227 227 227 228 229 229 229 229 230 231 232 233 232 231 231 231 231 232 232
307 305 305 307 308 307 305 303 301 300 300 301 299 299 299 299 299 299 298 299 303 305 308 310 309 311 312 311 307 302 295 289 285 280 273 267 259 252 245 241 237 232 230 229 229 230 230 229 227 227 226 224 224 225 226 226 225 226 227 228 228 228 228 229 230 231 231 231 231 231 230 230 230 230
306 305 305 306 307 306 304 301 299 299 299 300 300 299 299 300 300 300 299 300 303 305 309 311 312 313 315 313 310 305 297 291 286 281 275 268 260 251 242 238 235 231 227 226 226 227 229 228 226 225 224 223 224 224 225 224 224 225 226 226 226 226 227 228 228 229 229 230 230 230 229 229 228 228
305 304 304 305 306 305 302 300 299 298 299 300 300 300 300 301 302 302 302 302 304 306 310 313 314 316 317 316 312 308 301 295 290 283 276 268 259 248 239 234 232 229 225 223 223 225 226 226 225 224 222 222 222 223 223 223 223 224 224 224 224 225 226 226 227 227 228 228 228 228 228 228 227 228
305 305 304 305 305 303 301 299 298 298 298 299 300 300 301 302 303 303 305 306 307 308 311 314 317 318 320 319 317 312 306 299 293 284 276 268 257 244 235 231 229 226 223 221 220 222 224 223 222 222 220 220 221 221 221 221 222 222 223 223 224 224 225 225 225 226 226 226 227 227 227 227 227 228
305 306 305 305 304 302 300 299 299 298 298 299 300 301 302 303 304 305 307 307 308 310 312 316 320 322 323 323 322 318 311 303 296 286 277 268 254 239 232 227 224 222 220 218 217 220 222 221 221 220 218 218 219 219 219 219 220 221 222 222 223 223 224 224 225 225 226 226 226 226 226 226 226 228
305 305 305 305 304 301 300 299 299 299 299 300 301 302 303 304 305 307 308 308 310 312 314 318 321 323 325 326 325 323 317 308 298 290 281 267 248 236 229 224 220 218 216 214 215 218 220 220 220 219 217 217 217 217 217 218 219 220 221 221 222 222 223 223 224 224 224 225 225 226 226 225 226 228
304 304 304 304 303 301 300 300 300 299 300 301 302 303 304 305 306 309 309 309 312 314 316 319 321 322 325 328 328 327 324 314 303 296 286 265 244 234 227 221 217 215 214 212 214 218 220 219 217 215 215 216 216 216 216 217 219 220 220 220 221 222 222 223 223 223 223 224 225 226 227 226 226 228
304 303 303 303 302 301 300 300 300 300 301 303 304 304 305 306 308 310 311 312 315 317 318 322 323 323 327 331 331 331 330 323 310 303 294 268 244 233 225 218 213 212 210 210 213 217 219 218 215 213 213 215 216 215 215 216 217 218 219 220 221 222 223 223 223 223 224 225 226 227 227 227 227 228
303 302 302 302 301 300 300 300 300 303 304 305 306 306 307 309 311 312 313 315 319 321 322 325 326 326 329 334 334 334 335 331 317 307 301 276 244 230 221 214 211 209 209 210 212 216 217 218 216 214 213 213 213 213 214 215 216 216 217 219 220 222 223 224 224 225 225 226 227 228 228 228 228 228
302 302 303 301 299 299 300 300 301 305 307 307 308 308 309 311 313 315 316 318 323 326 327 328 330 330 331 334 336 337 338 338 327 312 305 288 247 227 219 212 208 209 210 210 213 215 216 217 217 214 212 212 212 213 215 216 216 216 216 217 219 221 223 225 225 226 227 227 228 228 229 230 230 230
302 303 302 301 299 299 300 300 302 306 308 309 310 311 312 314 316 318 319 322 326 330 331 331 333 332 332 334 338 338 338 340 338 325 312 302 258 225 215 209 206 208 209 210 212 215 216 216 216 214 212 211 212 213 215 216 217 216 216 217 220 223 225 226 226 226 227 228 229 229 230 231 231 231
302 302 302 301 300 300 301 302 304 308 309 310 311 313 315 316 319 321 323 325 329 331 332 333 334 335 334 335 339 342 339 339 345 342 326 313 285 222 210 206 205 207 208 209 212 215 215 215 215 213 211 211 212 213 215 216 217 217 218 219 222 225 227 227 227 228 228 228 229 230 231 232 232 232
301 301 301 301 299 299 301 303 306 308 309 310 312 314 316 317 319 323 325 327 329 332 333 335 336 337 337 337 341 346 345 340 344 349 343 329 313 225 203 200 202 205 207 208 212 215 215 213 212 211 210 210 211 213 215 216 216 216 219 221 223 225 227 228 228 229 229 229 230 230 231 231 232 232
299 299 299 300 299 300 301 303 306 308 310 312 314 316 317 318 319 323 326 327 329 332 335 337 338 340 341 341 343 348 350 344 342 347 350 345 323 233 199 193 196 202 205 207 211 214 213 212 212 211 211 212 213 213 215 216 218 219 221 223 224 226 229 229 229 229 229 229 229 230 231 231 232 233
297 297 299 300 300 300 301 302 305 307 310 313 316 317 317 318 319 322 326 328 330 333 336 339 340 342 344 344 345 348 352 351 347 347 349 349 329 226 195 189 191 198 204 208 211 213 214 214 214 214 214 215 215 216 217 219 220 221 223 224 226 228 230 230 230 229 229 229 229 230 231 231 232 232
296 297 299 299 300 301 301 301 303 306 309 312 315 315 316 316 318 321 325 328 330 333 337 340 342 343 345 347 348 349 351 354 354 354 353 348 328 233 202 197 196 200 204 207 210 213 214 213 213 213 215 216 216 217 218 220 221 221 223 224 226 227 229 229 230 230 230 229 230 230 230 231 231 231
296 298 298 298 299 300 300 300 302 304 307 310 312 313 314 315 317 320 323 327 330 332 336 340 343 345 346 348 351 352 353 354 355 357 358 355 338 275 219 208 209 212 212 210 210 211 212 212 212 214 217 219 219 219 219 221 222 223 223 224 225 226 227 228 229 229 228 228 228 228 229 231 230 230
297 299 298 297 297 297 298 299 300 303 306 308 310 312 313 314 316 318 320 324 328 331 335 339 343 346 347 349 351 354 356 357 357 357 359 1 356 323 257 223 218 220 220 219 216 213 212 213 215 217 219 220 220 220 222 222 223 224 224 224 225 226 227 227 228 227 226 226 226 226 228 230 230 229
298 299 298 296 295 294 295 296 298 301 304 306 308 310 312 313 314 316 317 321 325 329 333 337 340 345 347 349 351 354 356 360 3 1 359 1 4 354 307 248 230 226 224 224 222 217 214 215 217 218 219 220 219 219 221 222 223 224 224 224 225 226 226 226 227 227 227 227 227 227 228 229 228 228
298 298 298 297 294 293 293 294 296 298 301 304 306 308 310 311 312 314 316 319 323 327 331 334 337 341 345 348 350 353 355 358 3 5 2 1 4 3 344 302 258 235 226 225 224 219 216 216 219 221 221 222 220 219 219 220 223 225 225 225 225 226 227 227 228 229 229 229 230 230 229 227 227 228
297 297 298 297 295 294 293 293 294 296 298 301 304 306 308 310 312 314 316 318 321 324 328 331 334 337 342 345 348 351 354 355 358 3 4 4 3 1 353 340 314 261 226 218 220 218 215 214 217 219 219 219 219 218 217 216 218 222 224 225 226 227 228 229 230 231 231 230 229 228 227 226 227 229
295 295 296 296 296 296 294 294 294 295 295 298 301 304 306 308 310 312 314 316 318 321 325 329 332 335 338 342 346 349 351 353 354 357 2 6 7 4 1 359 351 327 248 206 201 204 207 209 211 212 211 212 214 215 214 213 215 218 221 223 225 227 228 229 230 232 233 231 228 226 226 227 229 230
292 293 293 294 295 296 296 295 295 295 295 296 298 301 304 305 306 309 312 314 317 320 323 326 331 334 335 338 342 346 348 350 350 352 357 4 8 7 6 7 8 5 355 220 197 191 191 196 201 203 205 207 211 213 212 212 215 218 218 219 222 224 226 228 229 231 234 232 227 225 225 227 228 230
290 291 291 291 293 295 296 296 296 297 297 297 297 298 300 301 303 306 310 313 316 319 322 325 329 332 334 337 340 342 344 346 347 348 353 359 3 5 7 8 6 10 22 41 200 196 191 188 187 191 196 200 206 210 211 211 214 217 217 217 219 221 223 225 227 230 233 232 227 225 226 227 228 230
288 289 289 290 291 293 294 295 297 299 299 298 296 296 296 298 301 304 307 312 316 320 322 324 327 330 334 337 339 340 342 344 344 345 349 355 358 359 3 7 9 9 13 25 155 187 195 196 192 188 188 192 197 202 207 210 214 217 218 218 217 217 218 220 222 224 227 229 227 225 226 229 231 233
289 289 288 288 289 291 293 295 297 299 300 298 296 295 295 296 299 302 305 311 317 320 321 323 327 331 335 338 340 341 341 342 342 342 344 349 355 356 356 1 8 14 13 358 357 156 181 197 198 191 188 190 191 192 196 202 207 211 215 216 216 215 215 216 218 217 219 225 227 224 223 225 229 230
288 288 287 287 288 289 291 294 296 297 298 298 297 296 296 296 298 301 305 310 315 318 320 323 327 332 336 339 342 343 342 341 341 342 342 344 349 354 357 357 358 2 8 5 354 144 168 187 196 195 195 197 197 195 195 196 197 200 206 211 214 215 216 216 217 215 213 218 224 221 216 217 221 224